Fremont, MI

6:55 PM EDT on May 23, 2017 (GMT -0400)
Fremont

Weather History for KFFX - March, 2013

Change the Weather History Date:

Thursday, March 28, 2013

  Actual Average (KMKG) Record (KMKG)
Temperature  
Mean Temperature 36 °F -  
Max Temperature 47 °F 48 °F 73 °F (2004)
Min Temperature 26 °F 29 °F 8 °F (1923)
Degree Days  
Heating Degree Days 28    
Moisture  
Dew Point 22 °F    
Average Humidity 61    
Maximum Humidity 96    
Minimum Humidity 30    
Precipitation  
Precipitation 0.00 in - - ()
Sea Level Pressure  
Sea Level Pressure 30.26 in    
Wind  
Wind Speed 4 mph (West)    
Max Wind Speed 14 mph    
Max Gust Speed 20 mph    
Visibility 10 miles    
Events      
Averages and records for this station are not official NWS values.
T = Trace of Precipitation, MM = Missing Value Source: NWS Daily Summary

Daily Weather History Graph

Daily Weather History Graph

Search for Another Location

Airport or City:

Trip Planner

Search our weather history database for the weather conditions in past years. The results will help you decide how hot, cold, wet, or windy it might be!

Date:

Astronomy

Mar. 28, 2013 Rise Set
Actual Time 7:32 AM EDT 8:06 PM EDT
Civil Twilight 7:03 AM EDT 8:34 PM EDT
Nautical Twilight 6:29 AM EDT 9:08 PM EDT
Astronomical Twilight 5:54 AM EDT 9:44 PM EDT
Moon 10:01 PM EDT (3/28) 7:56 AM EDT (3/28)
Length of Visible Light 13h 31m
Length of Day
12h 33m
Full, 98% of the Moon is Illuminated
Mar 28
Full
Apr 3
Last Quarter
Apr 10
New
Apr 18
First Quarter
Apr 25
Full

Hourly Weather History & Observations

Time (EDT) Temp. Windchill Dew Point Humidity Pressure Visibility Wind Dir Wind Speed Gust Speed Precip Events Conditions
12:14 AM 30.9 °F 27.5 °F 22.6 °F 71% 30.24 in 10.0 mi WSW 3.5 mph - N/A   Clear
12:35 AM 30.2 °F 26.7 °F 23.2 °F 75% 30.24 in 10.0 mi WSW 3.5 mph - N/A   Clear
12:54 AM 30.2 °F - 23.7 °F 77% 30.24 in 10.0 mi Calm Calm - N/A   Clear
1:14 AM 29.8 °F - 24.4 °F 80% 30.24 in 10.0 mi Calm Calm - N/A   Clear
1:35 AM 29.7 °F - 24.4 °F 81% 30.24 in 10.0 mi Calm Calm - N/A   Clear
1:54 AM 29.3 °F 25.6 °F 24.8 °F 83% 30.24 in 10.0 mi WSW 3.5 mph - N/A   Clear
2:15 AM 29.7 °F 26.1 °F 24.6 °F 81% 30.25 in 10.0 mi WSW 3.5 mph - N/A   Clear
2:34 AM 29.8 °F 26.3 °F 25.0 °F 82% 30.25 in 10.0 mi West 3.5 mph - N/A   Clear
2:55 AM 30.2 °F 26.7 °F 25.5 °F 83% 30.24 in 10.0 mi WSW 3.5 mph - N/A   Clear
3:14 AM 28.8 °F - 24.8 °F 85% 30.24 in 10.0 mi Calm Calm - N/A   Clear
3:34 AM 29.1 °F - 25.5 °F 86% 30.24 in 10.0 mi Calm Calm - N/A   Clear
3:55 AM 27.5 °F 23.6 °F 24.3 °F 88% 30.24 in 10.0 mi West 3.5 mph - N/A   Clear
4:15 AM 28.0 °F - 25.3 °F 90% 30.24 in 10.0 mi Calm Calm - N/A   Clear
4:34 AM 28.8 °F - 25.7 °F 88% 30.24 in 10.0 mi Calm Calm - N/A   Clear
4:55 AM 29.3 °F - 26.4 °F 89% 30.24 in 10.0 mi Calm Calm - N/A   Clear
5:14 AM 28.6 °F - 27.0 °F 94% 30.24 in 10.0 mi Calm Calm - N/A   Clear
5:35 AM 28.0 °F - 26.2 °F 93% 30.24 in 10.0 mi Calm Calm - N/A   Clear
5:54 AM 27.5 °F - 26.2 °F 95% 30.25 in 10.0 mi Calm Calm - N/A   Clear
6:15 AM 27.3 °F - 26.2 °F 96% 30.25 in 10.0 mi Calm Calm - N/A   Clear
6:34 AM 27.1 °F - 26.1 °F 96% 30.25 in 10.0 mi Calm Calm - N/A   Clear
6:55 AM 27.3 °F - 26.4 °F 96% 30.25 in 10.0 mi Calm Calm - N/A   Clear
7:14 AM 26.8 °F - 25.7 °F 96% 30.25 in 10.0 mi Calm Calm - N/A   Clear
7:35 AM 26.6 °F - 25.7 °F 96% 30.26 in 10.0 mi Calm Calm - N/A   Clear
7:54 AM 26.8 °F - 25.7 °F 96% 30.27 in 10.0 mi Calm Calm - N/A   Clear
8:15 AM 27.0 °F - 25.2 °F 93% 30.27 in 10.0 mi Calm Calm - N/A   Clear
8:34 AM 29.1 °F - 27.0 °F 92% 30.27 in 10.0 mi Calm Calm - N/A   Clear
8:55 AM 32.0 °F 28.7 °F 27.0 °F 82% 30.27 in 10.0 mi WNW 3.5 mph - N/A   Clear
9:15 AM 32.9 °F 28.5 °F 25.3 °F 74% 30.28 in 10.0 mi WNW 4.6 mph - N/A   Clear
9:34 AM 34.0 °F 28.8 °F 25.7 °F 72% 30.28 in 10.0 mi West 5.8 mph - N/A   Clear
9:54 AM 35.2 °F 29.5 °F 25.3 °F 67% 30.28 in 10.0 mi WNW 6.9 mph - N/A   Clear
10:15 AM 36.5 °F 31.8 °F 24.8 °F 63% 30.29 in 10.0 mi NW 5.8 mph - N/A   Clear
10:34 AM 38.1 °F 32.3 °F 23.7 °F 56% 30.29 in 10.0 mi WNW 8.1 mph - N/A   Clear
10:55 AM 39.4 °F 34.5 °F 22.5 °F 51% 30.29 in 10.0 mi WNW 6.9 mph - N/A   Clear
11:15 AM 40.8 °F 36.2 °F 21.6 °F 46% 30.29 in 10.0 mi WNW 6.9 mph - N/A   Clear
11:34 AM 42.1 °F 37.1 °F 20.3 °F 42% 30.29 in 10.0 mi NNW 8.1 mph - N/A   Clear
11:55 AM 42.3 °F 38.6 °F 19.2 °F 40% 30.28 in 10.0 mi NNW 5.8 mph - N/A   Clear
12:14 PM 43.3 °F 38.6 °F 18.9 °F 38% 30.28 in 10.0 mi NW 8.1 mph - N/A   Clear
12:34 PM 44.2 °F 39.7 °F 19.4 °F 37% 30.28 in 10.0 mi NW 8.1 mph - N/A   Clear
12:55 PM 44.8 °F 40.4 °F 19.0 °F 36% 30.28 in 10.0 mi West 8.1 mph - N/A   Clear
1:14 PM 45.9 °F 41.2 °F 18.1 °F 33% 30.28 in 10.0 mi NW 9.2 mph - N/A   Clear
1:35 PM 46.4 °F 41.1 °F 18.3 °F 33% 30.28 in 10.0 mi WNW 11.5 mph - N/A   Clear
1:55 PM 47.1 °F - 17.4 °F 31% 30.28 in 10.0 mi West 11.5 mph - N/A   Clear
2:14 PM 47.1 °F - 18.3 °F 32% 30.27 in 10.0 mi NW 12.7 mph - N/A   Clear
2:35 PM 47.8 °F - 18.3 °F 31% 30.27 in 10.0 mi NW 10.4 mph 16.1 mph N/A   Clear
2:54 PM 47.7 °F - 18.3 °F 31% 30.27 in 10.0 mi West 13.8 mph - N/A   Clear
3:15 PM 47.5 °F - 17.4 °F 30% 30.26 in 10.0 mi WNW 10.4 mph - N/A   Clear
3:35 PM 47.5 °F - 18.3 °F 31% 30.26 in 10.0 mi West 12.7 mph 19.6 mph N/A   Clear
3:54 PM 47.3 °F - 19.0 °F 33% 30.26 in 10.0 mi West 12.7 mph 18.4 mph N/A   Clear
4:15 PM 46.2 °F 41.7 °F 17.1 °F 31% 30.26 in 10.0 mi WNW 9.2 mph - N/A   Clear
4:34 PM 46.6 °F - 18.0 °F 32% 30.26 in 10.0 mi West 10.4 mph - N/A   Clear
4:55 PM 46.6 °F - 17.8 °F 32% 30.25 in 10.0 mi WNW 10.4 mph 18.4 mph N/A   Clear
5:14 PM 46.6 °F - 18.3 °F 32% 30.25 in 10.0 mi West 10.4 mph - N/A   Clear
5:35 PM 45.9 °F 40.4 °F 18.3 °F 33% 30.25 in 10.0 mi WNW 11.5 mph - N/A   Clear
5:55 PM 45.5 °F 40.3 °F 18.7 °F 34% 30.25 in 10.0 mi West 10.4 mph 16.1 mph N/A   Clear
6:14 PM 44.8 °F 39.4 °F 17.8 °F 34% 30.26 in 10.0 mi West 10.4 mph 17.3 mph N/A   Clear
6:35 PM 43.9 °F 38.8 °F 16.9 °F 34% 30.26 in 10.0 mi West 9.2 mph - N/A   Clear
6:54 PM 42.8 °F 37.0 °F 16.2 °F 34% 30.26 in 10.0 mi West 10.4 mph - N/A   Clear
7:15 PM 41.9 °F 35.9 °F 16.7 °F 36% 30.26 in 10.0 mi West 10.4 mph - N/A   Clear
7:34 PM 40.6 °F 36.0 °F 16.7 °F 38% 30.26 in 10.0 mi West 6.9 mph - N/A   Clear
7:55 PM 38.5 °F 35.0 °F 19.4 °F 46% 30.27 in 10.0 mi West 4.6 mph - N/A   Clear
8:15 PM 37.0 °F 33.3 °F 18.5 °F 47% 30.27 in 10.0 mi West 4.6 mph - N/A   Clear
8:35 PM 36.5 °F 33.9 °F 18.5 °F 48% 30.27 in 10.0 mi West 3.5 mph - N/A   Clear
8:55 PM 36.5 °F 33.9 °F 17.8 °F 47% 30.27 in 10.0 mi WSW 3.5 mph - N/A   Clear
9:15 PM 35.8 °F 33.0 °F 18.1 °F 49% 30.27 in 10.0 mi WSW 3.5 mph - N/A   Clear
9:35 PM 35.2 °F 32.4 °F 18.5 °F 51% 30.28 in 10.0 mi WSW 3.5 mph - N/A   Clear
9:54 PM 33.3 °F 30.2 °F 19.8 °F 58% 30.28 in 10.0 mi WSW 3.5 mph - N/A   Clear
10:15 PM 33.8 °F 30.8 °F 19.4 °F 56% 30.28 in 10.0 mi WSW 3.5 mph - N/A   Clear
10:34 PM 32.0 °F - 19.4 °F 60% 30.28 in 10.0 mi Calm Calm - N/A   Clear
10:55 PM 31.5 °F - 20.1 °F 63% 30.28 in 10.0 mi Calm Calm - N/A   Clear
11:14 PM 31.1 °F - 19.9 °F 63% 30.28 in 10.0 mi Calm Calm - N/A   Clear
11:34 PM 30.4 °F - 19.9 °F 65% 30.28 in 10.0 mi Calm Calm - N/A   Clear
11:55 PM 29.7 °F - 18.1 °F 62% 30.28 in 10.0 mi Calm Calm - N/A   Clear